Regional Weather Roundup
Issued by NWS

Home | Current Version | Previous Version | Graphics & Text | Print | Product List | Glossary On
Versions: 1 2 3 4 5 6 7 8 9 10 11 12 13 14 15 16 17 18 19 20 21 22 23 24 25 26 27 28 29 30 31 32 33 34 35 36 37 38 39 40 41 42 43 44 45 46 47 48 49 50
000
ASUS43 KMPX 161510
RWRMN
WEATHER ROUNDUP FOR MINNESOTA
NATIONAL WEATHER SERVICE TWIN CITIES/CHANHASSEN MN
1000 AM CDT WED AUG 16 2017


NOTE: "FAIR" INDICATES FEW OR NO CLOUDS BELOW 12,000 FEET WITH NO
SIGNIFICANT WEATHER AND/OR OBSTRUCTIONS TO VISIBILITY. N/A MEANS
CURRENT SKY AND/OR WEATHER CONDITIONS ARE NOT AVAILABLE.

MNZ060>063-068>070-161600-
   Twin Cities Metro

CITY           SKY/WX    TMP DP  RH WIND       PRES   REMARKS
TWIN CITIES    CLOUDY    67  63  87 SE13      29.90F
ST PAUL        CLOUDY    67  66  97 SE12      29.91F
CRYSTAL        CLOUDY    68  62  81 SE9       29.89F
BLAINE         PTSUNNY   70  68  94 SE9       29.91S FOG
LAKEVILLE      CLOUDY    64  64 100 SE9       29.90F
EDEN PRAIRIE   CLOUDY    68  64  87 SE14      29.89F
SOUTH ST PAUL  CLOUDY    67  66  99 SE8       29.91F
LAKE ELMO      CLOUDY    64  64 100 S7        29.94S
$$
MNZ001>005-007-008-013>017-022>024-027-028-161600-
   Northwest Minnesota

CITY           SKY/WX    TMP DP  RH WIND       PRES   REMARKS
BEMIDJI        CLOUDY    62  59  88 E12       29.90S
HALLOCK        DRIZZLE   64  63  94 E7        29.88S
ROSEAU         DRIZZLE   66  61  82 E5        29.92S
WARROAD        PTSUNNY   64  61  88 SE5       29.93S
THIEF RVR FALL CLOUDY    64  63  94 E6        29.89S
CROOKSTON      CLOUDY    64  63  94 E5        29.87S
FOSSTON          N/A     63  63 100 SE6       29.88S
DETROIT LAKES  CLOUDY    63  61  94 SE8       29.88S FOG
MOORHEAD       CLOUDY    66  63  88 SE3       29.85R
PARK RAPIDS    CLOUDY    64  61  90 SE10      29.89S FOG
MAHNOMEN       CLOUDY    64  61  91 SE8       29.86S
$$
MNZ006-009>011-018-025>026-161600-
   North Central Minnesota

CITY           SKY/WX    TMP DP  RH WIND       PRES   REMARKS
BAUDETTE       CLOUDY    63  58  83 SE6       29.93S
FLAG ISLAND    CLOUDY    68  61  77 CALM      29.92S
INTL FALLS     CLOUDY    64  54  69 SE8       29.96F
WASKISH        CLOUDY    63  57  82 E9        29.92S
BIG FORK       CLOUDY    66  55  68 SE8       29.94F
LONGVILLE      CLOUDY    61  59  94 SE3       29.92S FOG
GRAND RAPIDS   CLOUDY    65  58  78 SE8       29.96F
CRANE LAKE     MOSUNNY   64  52  63 SE3       29.99S
ORR            CLOUDY    63  52  67 CALM      29.95S
COOK             N/A     64  54  68 E5        29.98S
WALKER         CLOUDY    61  59  92 E7        29.91F
$$
MNZ012-019>021-037-161600-
   Northeast Minnesota

CITY           SKY/WX    TMP DP  RH WIND       PRES   REMARKS
DULUTH         MOSUNNY   64  59  83 E13       29.99S
ELY            MOSUNNY   68  48  49 E8        30.00S
HIBBING        CLOUDY    66  56  70 SE12      29.97S
EVELETH        CLOUDY    64  52  64 CALM      29.99F
DULUTH HARBOR  MOSUNNY   66  63  88 NE18      29.98F
TWO HARBORS    MOSUNNY   66  61  82 E13       29.99S
SILVER BAY     CLOUDY    63  57  82 NE10G16   30.00S
GRAND MARAIS     N/A     63  57  81 E14       30.03S
G MARAIS ARPRT CLOUDY    63  46  55 E5        30.05F
$$
MNZ029>031-032-039>041-046>048-054>057-064-161600-
   West Central Minnesota

CITY           SKY/WX    TMP DP  RH WIND       PRES   REMARKS
FERGUS FALLS   CLOUDY    66  66 100 SE8       29.84S FOG
WHEATON        CLOUDY    66  63  88 SE8       29.85S
MORRIS         CLOUDY    66  66 100 SE8       29.84S FOG
ALEXANDRIA     CLOUDY    66  65  96 SE9       29.88F
ELBOW LAKE     CLOUDY    65  65  99 E9        29.86S
WADENA         CLOUDY    63  63 100 SE9       29.88S
GLENWOOD       CLOUDY    66  64  94 SE9       29.88S FOG
APPLETON       CLOUDY    70  64  83 S7        29.84S
BENSON         CLOUDY    68  64  88 S8        29.86F
ORTONVILLE     CLOUDY    66  64  94 MISG      29.85R FOG
MADISON        RAIN      70  70 100 SE3       29.84F
WILLMAR        CLOUDY    66  64  94 SE10      29.88S
$$
MNZ033>034-036-042>043-049>051-058-059-161600-
   Central Minnesota

CITY           SKY/WX    TMP DP  RH WIND       PRES   REMARKS
ST CLOUD       CLOUDY    65  65 100 SE8       29.90F
SAUK CENTRE    CLOUDY    65  64  96 SE9       29.89R
PAYNESVILLE    CLOUDY    66  64  91 SE10      29.89F
AITKIN         CLOUDY    63  59  88 E7        29.92S
PINE RIVER     CLOUDY    59  57  94 E8        29.94F FOG
BRAINERD       CLOUDY    64  62  93 SE9       29.91F
STAPLES        CLOUDY    63  61  94 SE5       29.89S FOG
LONG PRAIRIE   CLOUDY    63  63 100 E7        29.89S FOG
LITTLE FALLS   CLOUDY    63  61  94 SE7       29.90S FOG
LITCHFIELD     CLOUDY    68  66  94 SE10      29.89F
BUFFALO        CLOUDY    67  63  86 SE7       29.90F
MAPLE LAKE     CLOUDY    68  66  92 SE6       29.90F
HUTCHINSON     CLOUDY    67  66  94 E12       29.89F
$$
MNZ037-044-045-052-053-161600-
   East Central Minnesota

CITY           SKY/WX    TMP DP  RH WIND       PRES   REMARKS
PRINCETON      CLOUDY    66  64  94 SE8       29.91F
MORA           CLOUDY    63  61  94 E5        29.95S
RUSH CITY      RAIN      65  62  90 SE3       29.93F
MOOSE LAKE     LGT RAIN  63  57  82 CALM      29.95R
HINCKLEY       CLOUDY    64  61  88 E5        29.94F
CLOQUET        MOSUNNY   64  57  77 E9G16     29.97F
MCGREGOR       CLOUDY    63  59  88 SE6       29.95S
$$
MNZ071>073-080-081-089-090-097-098-161600-
   Southwest Minnesota

CITY           SKY/WX    TMP DP  RH WIND       PRES   REMARKS
MONTEVIDEO     DRIZZLE   68  68 100 S6        29.85S
GRANITE FALLS  CLOUDY    69  67  94 SE8       29.87R
CANBY          RAIN      68  66  94 CALM      29.87R
MARSHALL       LGT RAIN  68  66  94 SE3       29.86R FOG
REDWOOD FALLS  CLOUDY    69  65  86 SE7       29.85F
OLIVIA         CLOUDY    68  64  88 SE8       29.86S FOG
PIPESTONE      HVY RAIN  66  64  94 SW5       29.87R
WINDOM         CLOUDY    68  66  94 E7        29.87S FOG
WORTHINGTON    RAIN      67  66  97 E7        29.87S FOG
JACKSON        FOG       66  66 100 CALM      29.87F VSB 1
TRACY          CLOUDY    69  68  96 S3        29.86S
SLAYTON        CLOUDY    66  62  86 SE3       29.87F FOG
$$
MNZ065>067-074>077-082>085-091>093-161600-
   South Central Minnesota

CITY           SKY/WX    TMP DP  RH WIND       PRES   REMARKS
MANKATO        CLOUDY    68  65  90 SE13      29.88F
NEW ULM        CLOUDY    66  64  94 SE12      29.87S FOG
ST JAMES       CLOUDY    66  66 100 SE8       29.88S FOG
FAIRMONT       CLOUDY    66  66 100 SE6       29.87F FOG
GLENCOE        CLOUDY    69  67  94 SE8       29.88F
FARIBAULT      CLOUDY    66  64  94 E7        29.90F
OWATONNA       PTSUNNY   70  66  88 E8        29.90F
WASECA         CLOUDY    68  63  83 E7        29.91F
ALBERT LEA     CLOUDY    72  70  94 SE10      29.89F FOG
$$
MNZ078>079-086>088-094>096-161600-
   Southeast Minnesota

CITY           SKY/WX    TMP DP  RH WIND       PRES   REMARKS
ROCHESTER      SUNNY     69  64  84 SE13      29.92F
RED WING       CLOUDY    68  61  77 E9        29.92F
DODGE CENTER   MOSUNNY   70  63  78 SE12G18   29.92F
WINONA         PTSUNNY   70  61  73 SE9       29.94F
AUSTIN         CLOUDY    70  64  83 SE12      29.90F
PRESTON        PTSUNNY   69  61  75 SE8       29.94F
$$
ABBREVIATIONS USED IN REMARKS
   TC - TEMPERATURES IN CELSIUS
  WCI - WIND CHILL INDEX
   HX - HEAT INDEX
  VSB - VISIBILITY
$$




USA.gov is the U.S. government's official web portal to all federal, state and local government web resources and services.